When you browse on this site, cookies collect data to enhance your experience and personalize the content and advertising you see.
Visit our Privacy Policy to learn more. By continuing to use the site, you agree to this use of cookies and data.
  • In Hungary
  • List of Countries
  • For 7 days
  • Water Temperature
  • Satellite Maps
  • Weather Map
  • News
  • Weather Widgets
  • user-avatar
    Login

    Hourly Weather Dlugowizna

    Today, 19 December, Wednesday

    Time Temperature Precipitation Wind Pressure Humidity
    00:00 -4°C° 0 mm 3 mps 756 mmHg 92%
    01:00 -5°C° 0 mm 3 mps 756 mmHg 93%
    02:00 -5°C° 0 mm 3 mps 756 mmHg 93%
    03:00 -5°C° 0 mm 3 mps 756 mmHg 92%
    04:00 -5°C° 0 mm 3 mps 755 mmHg 92%
    05:00 -6°C° 0 mm 3 mps 755 mmHg 92%
    06:00 -6°C° 0 mm 3 mps 755 mmHg 92%
    07:00 -7°C° 0 mm 3 mps 755 mmHg 92%
    08:00 -6°C° 0 mm 3 mps 755 mmHg 90%
    09:00 -7°C° 0 mm 4 mps 755 mmHg 87%
    10:00 -7°C° 0 mm 4 mps 755 mmHg 85%
    11:00 -5°C° 0 mm 4 mps 755 mmHg 84%
    12:00 -6°C° 0 mm 5 mps 754 mmHg 82%
    13:00 -5°C° 0 mm 5 mps 754 mmHg 80%
    14:00 -6°C° 0 mm 5 mps 753 mmHg 83%
    15:00 -7°C° 0 mm 5 mps 753 mmHg 85%
    16:00 -7°C° 0 mm 5 mps 753 mmHg 87%
    17:00 -8°C° 0 mm 5 mps 752 mmHg 88%
    18:00 -8°C° 0 mm 5 mps 752 mmHg 88%
    19:00 -8°C° 0 mm 5 mps 752 mmHg 89%
    20:00 -8°C° 0 mm 5 mps 752 mmHg 89%
    21:00 -8°C° 0 mm 5 mps 752 mmHg 89%
    22:00 -8°C° 0 mm 4 mps 751 mmHg 89%
    23:00 -8°C° 0 mm 4 mps 751 mmHg 89%

    Tomorrow, 20 December, Thursday

    Time Temperature Precipitation Wind Pressure Humidity
    00:00 -8°C° 0 mm 4 mps 751 mmHg 89%
    01:00 -8°C° 0 mm 4 mps 751 mmHg 89%
    02:00 -8°C° 0 mm 4 mps 750 mmHg 89%
    03:00 -8°C° 0 mm 4 mps 750 mmHg 89%
    04:00 -7°C° 0 mm 3 mps 750 mmHg 89%
    05:00 -7°C° 0 mm 3 mps 750 mmHg 89%
    06:00 -6°C° 0 mm 3 mps 750 mmHg 89%
    07:00 -6°C° 0 mm 3 mps 749 mmHg 88%
    08:00 -6°C° 0 mm 3 mps 749 mmHg 86%
    09:00 -5°C° 0 mm 3 mps 749 mmHg 85%
    10:00 -5°C° 0 mm 3 mps 750 mmHg 83%
    11:00 -4°C° 0 mm 3 mps 749 mmHg 82%
    12:00 -4°C° 0 mm 3 mps 749 mmHg 81%
    13:00 -2°C° 0 mm 3 mps 749 mmHg 80%
    14:00 -4°C° 0 mm 3 mps 749 mmHg 82%
    15:00 -3°C° 0 mm 2 mps 749 mmHg 84%
    16:00 -3°C° 0 mm 2 mps 749 mmHg 86%
    17:00 -3°C° 0 mm 2 mps 749 mmHg 87%
    18:00 -3°C° 0 mm 2 mps 748 mmHg 88%
    19:00 -4°C° 0 mm 3 mps 748 mmHg 89%
    20:00 -4°C° 0.3 mm 3 mps 748 mmHg 91%
    21:00 -4°C° 0.3 mm 3 mps 748 mmHg 92%
    22:00 -2°C° 0.3 mm 3 mps 748 mmHg 94%
    23:00 -2°C° 0.2 mm 3 mps 748 mmHg 94%

    Day after tomorrow, 21 December, Friday

    Time Temperature Precipitation Wind Pressure Humidity
    00:00 -2°C° 0.2 mm 3 mps 748 mmHg 94%
    01:00 -1°C° 0.2 mm 3 mps 748 mmHg 94%
    02:00 -1°C° 0.1 mm 3 mps 748 mmHg 93%
    03:00 -2°C° 0.1 mm 4 mps 747 mmHg 93%
    04:00 -2°C° 0.1 mm 4 mps 747 mmHg 93%
    05:00 -2°C° 0 mm 4 mps 747 mmHg 92%
    06:00 -2°C° 0 mm 4 mps 747 mmHg 91%
    07:00 -2°C° 0 mm 4 mps 747 mmHg 91%
    08:00 -2°C° 0 mm 4 mps 747 mmHg 91%
    09:00 -1°C° 0 mm 4 mps 747 mmHg 91%
    10:00 -1°C° 0 mm 4 mps 746 mmHg 91%
    11:00 -1°C° 0.1 mm 4 mps 746 mmHg 91%
    12:00 0°C° 0.1 mm 4 mps 745 mmHg 91%
    13:00 0°C° 0.1 mm 4 mps 745 mmHg 92%
    14:00 0°C° 0 mm 4 mps 744 mmHg 91%
    15:00 -1°C° 0 mm 4 mps 744 mmHg 90%
    16:00 -1°C° 0 mm 4 mps 743 mmHg 90%
    17:00 -1°C° 0.2 mm 4 mps 743 mmHg 90%
    18:00 -1°C° 0.2 mm 4 mps 742 mmHg 91%
    19:00 -1°C° 0.2 mm 4 mps 741 mmHg 91%
    20:00 -1°C° 0.4 mm 4 mps 741 mmHg 91%
    21:00 0°C° 0.4 mm 4 mps 740 mmHg 92%
    22:00 0°C° 0.4 mm 5 mps 739 mmHg 92%
    23:00 0°C° 0.9 mm 5 mps 738 mmHg 92%

    22 December, Saturday

    Time Temperature Precipitation Wind Pressure Humidity
    00:00 0°C° 0.9 mm 5 mps 737 mmHg 93%
    01:00 0°C° 0.9 mm 5 mps 736 mmHg 94%
    02:00 +1°C° 0.4 mm 6 mps 736 mmHg 92%
    03:00 +2°C° 0.4 mm 6 mps 735 mmHg 91%
    04:00 +2°C° 0.4 mm 7 mps 735 mmHg 90%
    05:00 +2°C° 0.2 mm 7 mps 735 mmHg 89%
    06:00 +2°C° 0.2 mm 7 mps 735 mmHg 88%
    07:00 +2°C° 0.2 mm 7 mps 735 mmHg 87%
    08:00 +2°C° 0.1 mm 7 mps 735 mmHg 87%
    09:00 +2°C° 0.1 mm 7 mps 736 mmHg 88%
    10:00 +2°C° 0.1 mm 7 mps 736 mmHg 88%
    11:00 +2°C° 0.1 mm 7 mps 736 mmHg 88%
    12:00 +3°C° 0.1 mm 7 mps 736 mmHg 88%
    13:00 +3°C° 0.1 mm 7 mps 736 mmHg 88%
    14:00 +3°C° 0.2 mm 6 mps 736 mmHg 89%
    15:00 +2°C° 0.2 mm 6 mps 736 mmHg 90%
    16:00 +2°C° 0.2 mm 6 mps 736 mmHg 91%
    17:00 +2°C° 0.2 mm 5 mps 736 mmHg 92%
    18:00 +2°C° 0.2 mm 5 mps 736 mmHg 93%
    19:00 +2°C° 0.2 mm 5 mps 736 mmHg 94%
    20:00 +2°C° 0.2 mm 6 mps 736 mmHg 92%
    21:00 +2°C° 0.2 mm 6 mps 736 mmHg 90%
    22:00 +2°C° 0.2 mm 6 mps 736 mmHg 89%
    23:00 +2°C° 0.4 mm 7 mps 737 mmHg 89%

    23 December, Sunday

    Time Temperature Precipitation Wind Pressure Humidity
    00:00 +1°C° 0.4 mm 8 mps 738 mmHg 89%
    01:00 0°C° 0.4 mm 8 mps 738 mmHg 89%
    02:00 0°C° 0.2 mm 8 mps 739 mmHg 88%
    03:00 -1°C° 0.2 mm 8 mps 741 mmHg 87%
    04:00 -2°C° 0.2 mm 7 mps 742 mmHg 86%
    05:00 -2°C° 0.1 mm 7 mps 743 mmHg 88%
    06:00 -2°C° 0.1 mm 6 mps 744 mmHg 89%
    07:00 -1°C° 0.1 mm 5 mps 745 mmHg 90%
    08:00 -1°C° 0 mm 5 mps 745 mmHg 90%
    09:00 -1°C° 0 mm 4 mps 746 mmHg 90%
    10:00 -1°C° 0 mm 4 mps 746 mmHg 90%
    11:00 0°C° 0 mm 4 mps 747 mmHg 89%
    12:00 +1°C° 0 mm 3 mps 747 mmHg 87%
    13:00 +1°C° 0 mm 3 mps 747 mmHg 85%
    14:00 0°C° 0 mm 3 mps 747 mmHg 87%
    15:00 +1°C° 0 mm 2 mps 747 mmHg 89%
    16:00 -1°C° 0 mm 2 mps 747 mmHg 90%
    17:00 -1°C° 0 mm 2 mps 747 mmHg 91%
    18:00 -1°C° 0 mm 2 mps 747 mmHg 92%
    19:00 -1°C° 0 mm 2 mps 747 mmHg 92%
    20:00 +1°C° 0.4 mm 2 mps 747 mmHg 92%
    21:00 0°C° 0.4 mm 3 mps 747 mmHg 93%
    22:00 +1°C° 0.4 mm 3 mps 747 mmHg 93%
    23:00 +1°C° 0.2 mm 3 mps 747 mmHg 93%

    24 December, Monday

    Time Temperature Precipitation Wind Pressure Humidity
    00:00 0°C° 0.2 mm 4 mps 747 mmHg 93%
    01:00 0°C° 0.2 mm 4 mps 747 mmHg 93%
    02:00 0°C° 0.4 mm 4 mps 746 mmHg 93%
    03:00 0°C° 0.4 mm 5 mps 746 mmHg 92%
    04:00 0°C° 0.4 mm 5 mps 746 mmHg 92%
    05:00 0°C° 0.4 mm 5 mps 746 mmHg 92%
    06:00 +1°C° 0.4 mm 5 mps 746 mmHg 92%
    07:00 +1°C° 0.4 mm 5 mps 745 mmHg 92%
    08:00 +1°C° 0.1 mm 5 mps 746 mmHg 92%
    09:00 +1°C° 0.1 mm 5 mps 746 mmHg 91%
    10:00 +1°C° 0.1 mm 4 mps 746 mmHg 91%
    11:00 +1°C° 0.1 mm 5 mps 747 mmHg 90%
    12:00 +1°C° 0.1 mm 5 mps 748 mmHg 90%
    13:00 +1°C° 0.1 mm 6 mps 748 mmHg 89%
    14:00 0°C° 0 mm 5 mps 749 mmHg 89%
    15:00 0°C° 0 mm 5 mps 750 mmHg 88%
    16:00 -1°C° 0 mm 5 mps 750 mmHg 87%
    17:00 -1°C° 0 mm 4 mps 751 mmHg 88%
    18:00 -1°C° 0 mm 4 mps 751 mmHg 88%
    19:00 -1°C° 0 mm 4 mps 752 mmHg 89%
    20:00 -1°C° 0.1 mm 4 mps 752 mmHg 90%
    21:00 -1°C° 0.1 mm 4 mps 752 mmHg 91%
    22:00 -1°C° 0.1 mm 4 mps 752 mmHg 92%
    23:00 -1°C° 0.1 mm 4 mps 752 mmHg 91%
    Show more